Temp
12 12 12 12 12 12 12 12 12 12 12 12 12 12 13 13 13 13 13 13 13 13 13 13 13 13 13 13 13 13 13 13 13 13 13 13 13 13 13 13 13 13 13 12 12 12 12 12 12 12 12 11 11 11 11 11 11 11 11 11 11 11 11 11 11 10 10 10 9
12 12 12 12 12 12 12 12 12 12 12 12 13 13 13 13 13 13 13 13 13 13 13 13 13 13 13 13 13 13 13 13 13 13 13 13 13 13 13 13 13 13 13 13 12 12 12 12 12 12 12 11 11 11 11 11 11 11 11 11 11 11 11 11 10 10 10 10 9
13 12 12 12 12 13 13 13 13 13 13 13 13 13 13 13 13 13 13 13 13 13 13 13 13 13 13 13 14 14 14 14 13 13 13 13 13 13 13 13 13 13 13 13 12 12 12 12 12 12 12 11 11 11 11 11 11 11 11 11 11 11 11 11 10 10 10 10 9
13 13 13 13 13 13 13 13 13 13 13 13 13 13 13 13 13 13 13 13 13 13 13 13 14 14 14 14 14 14 14 14 14 14 14 14 14 14 13 13 13 13 13 13 13 12 12 12 12 12 12 12 11 11 11 11 11 11 11 11 11 11 10 10 10 10 10 9 9
13 13 13 13 13 14 14 14 14 14 14 13 13 13 13 13 13 13 13 13 13 13 13 14 14 14 14 14 14 14 14 14 14 14 14 14 14 14 14 13 13 13 13 13 13 13 12 12 12 12 11 11 11 11 11 11 11 11 11 11 11 10 10 10 10 10 10 9 9
14 13 13 13 14 14 14 14 14 14 14 14 13 13 13 13 13 13 13 13 13 14 14 14 14 14 14 14 14 14 14 14 14 14 14 14 14 14 14 13 13 13 13 13 13 13 12 12 12 11 11 11 11 11 11 11 11 11 11 11 10 10 10 10 10 10 9 9 9
14 14 14 14 14 14 14 14 14 14 14 14 14 14 14 14 13 13 13 14 14 14 14 14 14 14 14 14 14 14 14 14 14 14 14 14 14 14 14 14 13 13 13 13 13 12 12 12 11 11 11 11 11 11 11 11 11 11 10 10 10 10 10 10 10 9 9 9 8
14 14 14 14 14 14 14 14 14 14 14 14 14 14 14 14 14 14 14 14 14 14 14 14 14 14 14 14 14 14 14 14 14 14 14 14 14 14 14 14 13 13 13 13 12 12 12 11 11 11 10 10 10 10 10 11 11 10 10 10 10 10 10 9 9 9 9 8 8
14 14 14 14 14 14 14 14 14 14 14 14 14 14 14 14 14 14 14 14 14 14 14 14 14 14 14 14 14 14 14 14 14 14 14 14 14 14 14 13 13 13 12 12 11 11 11 11 10 10 10 10 10 10 10 10 10 10 10 10 10 9 9 9 9 9 8 8 8
14 14 14 14 14 14 14 14 14 14 14 15 15 14 14 14 14 14 14 14 14 14 14 14 14 14 14 14 14 14 14 14 14 14 14 14 14 14 13 13 12 11 11 10 10 10 10 10 10 10 10 10 10 10 10 10 10 10 10 9 9 9 9 9 9 9 8 8 8
14 14 14 14 14 14 14 14 14 14 14 14 15 15 14 14 14 14 14 14 14 14 14 14 14 14 14 14 14 14 14 14 14 14 14 14 13 13 12 11 10 10 10 9 9 10 10 10 10 9 10 10 10 10 10 9 9 9 9 9 9 9 9 9 9 8 8 8 7
14 14 13 13 13 13 13 13 14 14 14 14 14 14 14 14 14 14 14 14 14 14 14 14 14 14 14 14 14 14 14 14 14 14 14 13 13 12 11 10 9 9 9 9 9 9 9 9 9 9 9 9 10 10 9 8 8 8 8 8 9 9 9 9 8 8 8 8 7
13 13 13 13 13 12 12 13 13 13 14 14 14 14 14 14 14 14 14 14 14 14 14 14 14 13 14 14 14 14 14 14 14 13 13 12 11 10 10 9 9 8 9 9 9 9 9 9 9 9 9 9 9 9 9 8 7 7 7 8 8 8 8 8 8 8 8 7 7
13 13 12 12 12 12 12 12 13 13 13 13 14 14 14 14 14 14 14 14 14 14 14 14 13 13 13 13 13 13 13 13 13 12 12 11 10 9 9 9 8 8 9 9 9 9 9 9 9 9 9 9 9 9 9 8 8 7 7 7 7 8 8 8 8 7 7 7 7
13 12 12 12 12 12 12 12 12 13 13 13 14 14 14 14 14 14 14 14 14 14 14 13 13 13 13 13 13 13 13 12 12 11 10 10 9 9 9 9 9 9 9 9 9 9 9 9 8 8 9 9 9 9 9 8 8 7 7 6 6 7 7 7 7 7 6 6 6
13 12 12 12 12 12 12 12 13 13 13 13 14 14 14 14 14 14 14 14 14 14 13 13 13 13 13 13 13 12 12 11 10 10 10 9 9 9 9 10 10 10 10 10 9 9 9 9 8 8 8 9 9 9 9 8 8 7 7 6 6 6 6 6 6 6 6 6 6
13 13 13 13 13 13 13 13 13 13 14 14 14 14 14 14 14 14 14 14 14 14 14 13 13 13 13 12 12 11 10 10 10 10 10 10 10 10 10 10 10 10 10 10 9 9 9 8 8 8 8 8 8 8 8 8 8 7 7 6 6 5 6 6 6 6 6 5 5
14 14 14 14 13 13 14 14 14 14 14 14 14 14 14 14 14 14 14 14 14 14 14 14 13 13 12 11 10 10 10 10 10 10 10 10 10 10 10 10 10 10 10 9 9 8 8 8 8 8 8 8 8 8 8 8 8 7 7 6 6 5 5 5 5 5 5 5 5
14 14 15 14 14 14 14 14 14 15 14 14 13 13 13 14 14 14 14 14 14 14 14 13 12 11 11 10 10 10 10 10 10 10 10 10 10 10 10 10 10 9 9 9 8 8 8 8 8 8 8 8 8 8 8 8 7 7 7 6 6 5 5 5 5 5 5 5 5
14 14 14 14 15 15 15 15 15 15 14 13 12 12 12 12 13 13 13 14 14 14 14 13 12 11 10 10 10 10 10 10 10 10 10 10 10 9 9 9 9 9 9 8 8 8 8 8 8 7 7 7 7 7 7 7 7 7 7 6 6 6 5 5 5 4 4 4 4
14 14 14 14 14 15 15 15 15 14 13 12 12 12 12 12 12 12 13 13 13 13 13 12 12 11 10 10 10 10 10 10 10 10 10 9 9 9 8 8 8 9 8 8 8 8 8 7 7 7 7 7 7 7 7 7 7 7 7 7 7 6 6 5 5 4 4 4 4
14 14 14 14 14 14 14 15 14 14 13 12 12 12 12 12 12 12 12 12 12 12 12 12 12 11 11 11 11 11 10 10 10 10 9 9 8 8 7 7 8 8 8 8 8 8 7 7 7 7 7 7 7 7 7 7 7 7 7 7 7 7 6 6 5 4 4 4 4
14 14 14 14 14 14 14 14 14 13 13 13 13 13 13 13 13 12 12 11 11 11 11 12 11 11 11 11 11 11 10 10 9 9 9 8 8 7 7 7 7 7 7 7 7 7 7 7 7 7 7 7 7 7 6 6 7 7 7 7 7 6 6 6 5 4 4 4 4
14 14 14 14 14 14 14 14 13 13 13 13 13 14 14 14 14 13 12 11 11 11 11 11 11 11 11 11 11 10 10 9 9 8 8 8 8 7 7 7 7 7 7 7 7 7 7 7 7 7 8 7 7 7 6 6 6 6 6 6 6 6 5 5 5 4 4 4 4
15 14 14 14 14 14 14 14 13 13 13 13 14 14 15 14 14 13 12 11 11 11 11 11 11 11 11 11 10 10 9 9 8 8 8 7 7 7 7 7 7 8 7 7 7 7 7 7 8 8 8 7 7 7 6 6 6 6 6 6 6 5 5 5 4 4 4 4 4
15 15 14 14 14 14 14 14 14 13 13 13 13 14 15 14 13 13 12 11 11 11 11 11 11 11 10 10 10 10 9 8 8 8 7 7 7 8 8 8 8 8 8 8 8 8 8 8 8 7 7 7 7 6 6 6 6 6 6 6 6 5 5 4 4 4 4 4 4
15 15 15 15 14 14 14 14 14 14 13 13 13 14 15 14 13 12 11 11 11 11 11 11 10 10 10 10 10 9 9 8 8 7 7 8 8 8 8 8 8 9 9 8 8 8 8 8 8 7 7 6 6 6 6 6 6 6 6 6 5 5 5 5 4 4 4 4 4
15 15 15 15 15 14 14 14 14 14 13 13 13 14 14 14 13 12 11 11 11 11 10 10 10 10 10 10 10 9 9 8 8 7 7 8 8 8 9 9 9 9 9 9 8 8 8 8 7 7 6 6 6 6 6 5 5 5 5 5 5 5 5 5 4 4 4 4 4
15 15 15 15 15 15 15 14 14 14 14 14 14 14 14 14 13 12 11 11 10 10 10 10 10 10 10 10 9 9 9 8 8 8 8 8 9 9 9 9 9 9 9 8 8 8 8 8 7 7 6 6 6 6 6 5 5 5 5 5 5 5 5 5 5 4 4 4 4
16 16 16 15 15 15 15 15 14 14 14 14 14 14 14 14 13 12 11 10 10 10 10 10 10 10 10 10 10 9 9 8 8 8 8 9 9 9 9 9 9 9 8 8 8 8 8 8 7 7 6 6 6 5 5 5 5 5 5 5 5 5 5 5 5 5 4 4 4
16 16 16 16 15 15 15 15 15 14 14 14 14 14 14 14 13 12 11 11 10 10 10 10 10 10 10 10 10 10 9 8 8 8 8 9 9 9 9 9 9 8 8 8 8 8 8 8 7 7 7 6 6 5 5 5 5 5 5 5 5 5 5 5 5 4 4 4 4
16 16 16 16 16 16 15 15 15 15 14 14 14 14 14 13 13 12 11 11 10 10 10 10 10 10 10 10 10 10 9 8 8 8 8 9 9 9 9 9 9 8 8 8 8 8 8 8 8 7 7 6 5 5 5 5 5 5 5 5 5 5 5 5 5 4 4 4 3
16 16 16 16 16 16 15 15 15 15 14 14 14 14 13 13 13 12 11 11 10 10 10 10 10 10 10 10 9 9 8 8 8 8 8 9 9 9 9 9 9 8 8 8 8 8 8 8 8 7 7 6 5 5 5 5 5 5 5 5 5 5 5 5 4 4 4 3 3
16 16 16 16 15 15 15 15 15 15 14 14 14 14 13 13 12 12 11 10 10 10 10 10 10 10 10 9 9 8 8 8 8 8 9 9 9 9 9 9 9 8 8 8 8 8 8 8 8 7 7 6 5 5 5 4 4 4 5 5 5 5 5 4 4 4 3 3 3
15 15 15 15 15 15 15 15 15 14 14 14 14 14 13 13 12 12 11 10 10 10 10 9 9 9 9 9 8 8 8 8 9 9 9 8 8 9 9 9 9 8 8 8 8 8 8 8 8 7 6 6 5 5 4 4 4 4 4 5 5 5 4 4 4 3 3 2 2
15 15 15 14 14 14 14 14 14 14 14 14 13 13 13 12 12 11 11 10 10 10 9 9 9 9 9 9 8 8 8 8 9 9 8 8 8 8 9 9 9 8 8 8 8 8 8 8 7 7 6 5 5 4 4 4 4 4 4 4 4 4 4 4 3 3 2 2 2
15 15 14 14 14 14 14 14 14 14 14 13 13 13 12 12 12 11 11 10 10 9 9 9 9 9 9 9 9 8 8 8 8 8 8 8 8 8 9 9 9 8 8 8 8 8 8 7 7 6 6 5 5 4 4 4 4 4 4 4 4 4 3 3 2 2 2 2 2
15 15 14 14 14 14 14 14 14 14 13 13 13 12 12 12 11 11 10 10 10 9 9 9 9 9 9 9 9 9 8 8 8 8 8 8 8 8 8 9 8 8 8 8 8 8 7 7 6 6 5 5 5 4 4 4 4 4 4 4 3 3 3 2 2 2 2 2 1
15 15 14 14 14 14 14 14 13 13 13 12 12 12 11 11 11 10 10 9 9 9 9 10 10 9 9 9 9 9 9 8 8 8 8 8 8 8 8 8 8 8 8 8 7 7 7 6 6 6 5 5 5 5 4 4 4 4 4 3 3 2 2 2 2 2 2 1 1
15 15 15 14 14 14 13 13 13 12 12 12 12 12 12 11 10 10 9 9 9 9 9 10 10 10 9 9 9 9 9 8 8 8 8 8 8 8 8 8 8 8 7 7 7 7 6 6 6 6 5 5 5 5 4 4 4 4 3 3 2 2 2 2 2 2 1 1 1
16 15 15 15 14 14 14 13 13 13 13 13 13 13 12 12 11 10 10 9 9 10 10 10 10 10 9 9 9 9 9 8 8 8 8 8 8 8 7 7 7 7 7 7 7 6 6 6 6 6 5 5 5 4 4 4 4 3 3 2 2 2 2 2 2 1 1 1 1
Height
1493 1494 1494 1495 1496 1497 1498 1499 1500 1501 1501 1502 1503 1504 1504 1505 1506 1506 1507 1508 1508 1509 1509 1510 1510 1511 1512 1512 1513 1513 1514 1514 1515 1515 1516 1517 1518 1518 1519 1520 1520 1521 1522 1523 1524 1524 1525 1526 1526 1526 1527 1527 1528 1528 1529 1529 1530 1530 1530 1531 1531 1531 1532 1532 1533 1533 1533 1534 1534
1491 1492 1493 1494 1495 1496 1497 1498 1499 1499 1500 1501 1501 1502 1503 1504 1504 1504 1505 1506 1506 1507 1508 1508 1509 1509 1510 1510 1511 1511 1512 1513 1513 1514 1514 1515 1516 1516 1517 1518 1518 1519 1520 1521 1522 1523 1523 1524 1524 1524 1524 1525 1525 1526 1527 1527 1528 1528 1528 1529 1529 1529 1530 1530 1531 1531 1532 1532 1532
1490 1491 1491 1492 1493 1494 1495 1496 1497 1497 1498 1499 1500 1501 1501 1502 1502 1503 1503 1504 1504 1505 1506 1506 1507 1508 1508 1509 1509 1509 1510 1510 1511 1511 1512 1513 1514 1514 1515 1515 1516 1517 1518 1519 1520 1521 1521 1521 1521 1521 1522 1522 1523 1523 1524 1525 1525 1526 1526 1526 1527 1527 1528 1528 1529 1529 1530 1530 1530
1488 1489 1490 1490 1491 1492 1493 1494 1494 1495 1496 1497 1499 1499 1500 1500 1500 1501 1501 1502 1503 1503 1503 1504 1505 1505 1506 1506 1507 1507 1508 1509 1509 1509 1510 1510 1511 1512 1513 1513 1514 1515 1516 1517 1518 1519 1519 1519 1519 1519 1519 1520 1520 1521 1522 1523 1524 1524 1524 1524 1525 1525 1526 1526 1527 1528 1528 1528 1529
1486 1487 1488 1488 1489 1489 1490 1492 1493 1494 1494 1496 1497 1497 1498 1498 1499 1499 1499 1500 1500 1500 1501 1502 1503 1503 1504 1504 1505 1505 1506 1506 1507 1507 1508 1508 1509 1510 1510 1511 1512 1513 1514 1515 1516 1516 1516 1517 1517 1517 1517 1517 1518 1519 1520 1521 1522 1523 1523 1523 1523 1523 1524 1524 1525 1526 1526 1526 1527
1484 1485 1485 1486 1487 1488 1489 1490 1491 1492 1493 1494 1494 1495 1495 1496 1496 1496 1497 1497 1497 1498 1499 1500 1500 1501 1502 1502 1503 1503 1504 1504 1505 1505 1505 1506 1507 1508 1508 1509 1510 1511 1512 1513 1514 1514 1514 1515 1515 1515 1515 1515 1516 1518 1519 1520 1521 1521 1521 1520 1521 1521 1522 1523 1523 1524 1524 1524 1525
1482 1483 1483 1484 1485 1485 1486 1488 1489 1490 1491 1492 1492 1492 1493 1493 1494 1494 1494 1495 1496 1496 1497 1498 1498 1499 1499 1500 1500 1501 1501 1502 1503 1503 1504 1504 1505 1505 1506 1507 1508 1509 1509 1510 1511 1512 1512 1513 1513 1513 1513 1514 1516 1517 1518 1519 1519 1519 1519 1519 1519 1520 1520 1521 1522 1522 1522 1522 1523
1480 1480 1481 1482 1483 1483 1484 1485 1487 1488 1489 1489 1489 1489 1490 1491 1492 1492 1493 1494 1494 1494 1495 1495 1496 1496 1497 1498 1498 1499 1499 1500 1500 1501 1501 1502 1503 1503 1504 1504 1505 1506 1507 1508 1509 1510 1511 1512 1512 1512 1513 1514 1515 1516 1517 1517 1517 1517 1517 1517 1518 1519 1519 1520 1520 1520 1520 1520 1521
1478 1478 1479 1480 1480 1481 1482 1483 1484 1485 1486 1486 1487 1487 1488 1489 1490 1491 1491 1492 1492 1493 1493 1493 1494 1494 1495 1495 1496 1496 1497 1497 1498 1499 1499 1500 1500 1501 1501 1502 1503 1504 1505 1507 1508 1509 1510 1511 1511 1512 1512 1513 1515 1515 1516 1516 1516 1516 1516 1516 1517 1518 1518 1519 1518 1519 1519 1519 1519
1475 1476 1477 1478 1479 1479 1480 1481 1483 1483 1484 1484 1485 1486 1487 1488 1488 1489 1489 1489 1490 1491 1491 1491 1492 1492 1493 1494 1494 1494 1495 1495 1496 1496 1497 1498 1498 1499 1499 1500 1501 1503 1504 1506 1508 1509 1509 1510 1510 1510 1511 1512 1514 1515 1515 1515 1515 1515 1516 1516 1517 1517 1517 1517 1517 1517 1517 1517 1518
1472 1474 1475 1476 1477 1478 1479 1480 1481 1481 1482 1482 1483 1484 1485 1485 1486 1487 1487 1488 1489 1489 1489 1489 1490 1490 1491 1491 1492 1492 1493 1494 1494 1494 1495 1495 1496 1497 1498 1499 1501 1503 1504 1505 1507 1508 1508 1508 1509 1509 1510 1511 1512 1514 1514 1515 1516 1516 1516 1516 1516 1516 1515 1515 1515 1516 1516 1516 1517
1471 1472 1474 1475 1476 1477 1478 1478 1479 1479 1479 1480 1481 1482 1482 1483 1484 1485 1486 1487 1487 1487 1487 1488 1488 1488 1489 1489 1490 1490 1491 1492 1492 1493 1493 1494 1494 1495 1497 1499 1501 1503 1504 1505 1506 1506 1506 1507 1507 1508 1509 1510 1511 1512 1513 1514 1515 1516 1516 1515 1515 1514 1514 1514 1514 1514 1515 1515 1515
1470 1471 1473 1474 1475 1476 1477 1477 1477 1477 1478 1478 1479 1479 1480 1481 1482 1483 1484 1484 1484 1484 1485 1485 1486 1486 1487 1487 1488 1489 1489 1489 1490 1491 1492 1493 1494 1495 1497 1499 1501 1502 1503 1504 1504 1504 1504 1504 1506 1507 1508 1508 1508 1509 1510 1512 1513 1514 1514 1514 1513 1513 1513 1513 1514 1514 1514 1514 1514
1469 1470 1472 1473 1474 1475 1475 1475 1475 1475 1476 1476 1476 1477 1478 1479 1479 1480 1481 1481 1482 1482 1483 1483 1484 1484 1484 1485 1485 1486 1487 1488 1489 1489 1491 1492 1494 1495 1497 1498 1499 1501 1502 1501 1501 1502 1502 1502 1504 1504 1505 1505 1506 1507 1508 1509 1509 1510 1511 1512 1512 1512 1512 1513 1514 1514 1514 1514 1514
1468 1469 1470 1472 1473 1474 1474 1474 1473 1473 1474 1474 1474 1474 1475 1476 1477 1478 1478 1479 1479 1479 1480 1481 1481 1481 1482 1483 1484 1484 1485 1486 1487 1489 1491 1492 1494 1494 1495 1496 1497 1498 1499 1499 1499 1499 1499 1500 1501 1502 1503 1503 1504 1504 1505 1506 1507 1508 1509 1510 1511 1511 1512 1513 1513 1513 1513 1512 1512
1465 1467 1468 1469 1470 1471 1471 1470 1470 1470 1471 1471 1471 1472 1473 1474 1474 1475 1475 1476 1476 1477 1478 1478 1479 1479 1480 1481 1482 1483 1484 1486 1487 1489 1490 1491 1492 1493 1493 1494 1494 1494 1495 1495 1496 1496 1497 1497 1498 1499 1500 1501 1502 1502 1503 1504 1505 1506 1506 1507 1508 1510 1511 1512 1512 1511 1511 1510 1509
1463 1464 1465 1466 1466 1466 1467 1467 1467 1467 1467 1467 1468 1469 1469 1470 1471 1472 1473 1473 1474 1474 1475 1475 1476 1477 1478 1479 1480 1482 1484 1485 1486 1487 1488 1489 1490 1490 1490 1490 1490 1490 1491 1492 1494 1495 1495 1495 1496 1497 1498 1498 1499 1500 1501 1502 1502 1503 1503 1504 1505 1507 1508 1509 1509 1509 1508 1507 1506
1459 1460 1462 1463 1463 1463 1463 1464 1464 1464 1464 1464 1464 1465 1466 1467 1468 1469 1469 1470 1471 1472 1472 1473 1474 1475 1477 1478 1479 1481 1482 1484 1484 1484 1485 1486 1486 1487 1487 1487 1487 1488 1489 1491 1493 1494 1494 1494 1494 1494 1495 1496 1497 1498 1498 1499 1499 1500 1501 1501 1502 1504 1505 1506 1506 1505 1505 1504 1504
1454 1455 1456 1458 1459 1460 1461 1462 1463 1462 1461 1461 1462 1463 1464 1464 1465 1466 1467 1468 1468 1469 1470 1471 1472 1474 1476 1477 1478 1479 1480 1481 1481 1482 1482 1483 1483 1484 1484 1485 1486 1487 1489 1490 1491 1492 1492 1492 1492 1492 1493 1494 1495 1495 1496 1496 1497 1498 1499 1499 1499 1500 1501 1502 1502 1502 1502 1502 1502
1450 1451 1452 1453 1454 1455 1456 1457 1458 1458 1459 1460 1461 1462 1463 1463 1464 1465 1465 1465 1466 1467 1468 1469 1470 1472 1474 1476 1477 1477 1478 1479 1479 1479 1479 1480 1481 1481 1482 1484 1485 1487 1488 1489 1489 1489 1489 1489 1490 1490 1491 1492 1493 1493 1494 1494 1495 1495 1496 1496 1497 1497 1498 1498 1499 1499 1499 1499 1500
1447 1448 1449 1449 1450 1451 1452 1453 1454 1456 1458 1460 1461 1462 1463 1463 1464 1464 1464 1464 1465 1466 1467 1468 1469 1470 1471 1473 1473 1474 1474 1475 1476 1476 1477 1478 1479 1480 1481 1483 1485 1486 1486 1487 1487 1486 1486 1487 1487 1488 1489 1490 1491 1491 1492 1492 1492 1493 1493 1493 1493 1494 1494 1494 1495 1496 1496 1496 1497
1443 1444 1445 1447 1448 1449 1450 1452 1454 1455 1456 1458 1459 1460 1461 1463 1462 1461 1461 1462 1463 1464 1465 1466 1467 1468 1468 1469 1469 1470 1471 1472 1473 1474 1475 1476 1477 1479 1480 1482 1484 1484 1485 1485 1485 1485 1484 1485 1485 1486 1487 1488 1488 1489 1489 1489 1489 1489 1489 1489 1490 1490 1490 1491 1491 1492 1493 1494 1494
1439 1441 1443 1444 1446 1447 1449 1451 1452 1453 1453 1454 1455 1457 1458 1459 1459 1458 1458 1459 1460 1462 1463 1463 1464 1464 1465 1465 1466 1467 1468 1469 1470 1471 1472 1473 1474 1475 1477 1479 1480 1482 1484 1484 1484 1484 1483 1483 1483 1484 1484 1485 1485 1485 1485 1485 1485 1485 1486 1487 1487 1488 1488 1488 1488 1489 1490 1491 1492
1437 1439 1440 1442 1444 1445 1447 1448 1449 1449 1449 1450 1452 1454 1454 1454 1454 1455 1455 1456 1458 1459 1459 1460 1461 1461 1462 1463 1464 1465 1466 1467 1468 1469 1469 1469 1470 1472 1474 1476 1478 1480 1481 1482 1482 1482 1482 1482 1482 1482 1482 1482 1482 1482 1482 1482 1482 1483 1484 1484 1485 1485 1485 1486 1486 1487 1488 1488 1489
1434 1436 1438 1440 1442 1443 1444 1445 1445 1444 1444 1446 1450 1452 1452 1452 1452 1453 1454 1454 1455 1455 1456 1457 1457 1459 1459 1460 1461 1462 1463 1464 1465 1466 1466 1467 1469 1472 1475 1477 1478 1479 1479 1479 1479 1479 1479 1479 1479 1479 1479 1478 1478 1479 1479 1479 1480 1481 1482 1482 1483 1483 1484 1484 1484 1484 1485 1486 1486
1433 1434 1436 1438 1439 1440 1441 1441 1441 1440 1441 1444 1447 1449 1450 1450 1451 1451 1452 1452 1452 1453 1453 1454 1454 1456 1457 1458 1459 1460 1461 1462 1462 1463 1464 1467 1471 1474 1476 1477 1477 1477 1476 1475 1475 1476 1476 1476 1476 1476 1476 1476 1476 1476 1477 1477 1478 1479 1479 1480 1481 1481 1481 1482 1482 1482 1483 1483 1484
1430 1432 1434 1435 1437 1438 1438 1438 1438 1438 1439 1442 1445 1446 1447 1448 1449 1449 1450 1450 1450 1451 1451 1451 1452 1453 1454 1455 1456 1457 1458 1458 1459 1461 1464 1469 1473 1474 1474 1473 1473 1472 1472 1472 1472 1472 1472 1473 1473 1474 1474 1474 1474 1474 1474 1475 1476 1476 1477 1478 1478 1479 1479 1479 1479 1480 1480 1481 1481
1428 1429 1431 1433 1434 1435 1435 1435 1436 1437 1438 1440 1442 1444 1445 1446 1446 1447 1447 1448 1448 1449 1449 1449 1450 1451 1452 1452 1453 1454 1454 1455 1457 1461 1465 1469 1472 1471 1469 1467 1466 1466 1466 1467 1468 1469 1469 1470 1471 1471 1472 1472 1472 1472 1473 1473 1474 1474 1475 1475 1476 1476 1477 1477 1477 1478 1478 1478 1479
1425 1426 1428 1430 1431 1432 1433 1433 1434 1434 1436 1438 1440 1442 1443 1444 1444 1445 1445 1446 1446 1446 1447 1447 1448 1449 1449 1449 1450 1450 1451 1453 1457 1461 1465 1467 1466 1463 1462 1461 1462 1462 1463 1464 1465 1466 1467 1468 1468 1469 1469 1470 1470 1470 1471 1471 1471 1472 1472 1473 1473 1474 1474 1475 1475 1475 1476 1476 1476
1422 1424 1425 1427 1428 1429 1430 1430 1431 1432 1434 1436 1439 1440 1442 1442 1442 1443 1443 1444 1444 1444 1444 1445 1445 1446 1446 1446 1447 1447 1449 1453 1456 1459 1461 1461 1459 1458 1458 1459 1459 1460 1461 1462 1463 1464 1464 1465 1465 1466 1467 1468 1469 1468 1468 1468 1469 1469 1470 1470 1471 1471 1472 1473 1473 1473 1474 1474 1474
1419 1421 1422 1424 1425 1426 1427 1428 1429 1430 1432 1435 1437 1439 1439 1440 1440 1441 1441 1441 1441 1442 1442 1443 1444 1444 1444 1444 1444 1446 1448 1451 1454 1456 1457 1456 1456 1456 1457 1458 1458 1459 1459 1460 1461 1461 1462 1462 1463 1464 1465 1466 1466 1466 1466 1466 1466 1467 1468 1468 1469 1469 1470 1470 1471 1471 1471 1472 1472
1417 1419 1420 1421 1423 1424 1425 1426 1428 1429 1431 1434 1435 1436 1437 1438 1439 1439 1439 1439 1440 1440 1441 1441 1442 1442 1443 1443 1443 1445 1447 1449 1451 1453 1454 1454 1454 1455 1456 1456 1457 1457 1458 1459 1459 1459 1459 1460 1461 1462 1463 1464 1464 1464 1464 1464 1464 1465 1466 1467 1467 1468 1468 1469 1469 1469 1469 1470 1470
1415 1417 1418 1419 1421 1422 1424 1425 1427 1429 1430 1432 1433 1434 1435 1436 1437 1438 1438 1438 1438 1438 1438 1439 1439 1440 1441 1441 1442 1444 1446 1448 1450 1451 1451 1452 1452 1453 1454 1454 1454 1455 1455 1457 1457 1457 1458 1458 1459 1460 1461 1462 1462 1462 1462 1462 1463 1464 1464 1465 1465 1466 1466 1467 1467 1467 1468 1468 1469
1414 1415 1417 1418 1420 1422 1423 1425 1426 1428 1429 1431 1432 1433 1434 1434 1436 1437 1437 1437 1436 1436 1437 1438 1438 1439 1440 1441 1442 1444 1446 1447 1449 1449 1449 1449 1449 1450 1450 1451 1451 1452 1453 1454 1454 1455 1456 1456 1457 1458 1459 1460 1460 1461 1461 1461 1461 1462 1463 1463 1464 1464 1465 1465 1465 1466 1466 1467 1467
1412 1414 1415 1417 1419 1421 1422 1423 1425 1427 1428 1429 1430 1431 1432 1433 1434 1435 1435 1435 1435 1435 1436 1437 1438 1439 1440 1441 1442 1444 1445 1446 1446 1446 1445 1445 1446 1447 1447 1448 1448 1449 1451 1452 1452 1453 1454 1455 1455 1456 1457 1458 1459 1459 1459 1459 1460 1460 1461 1462 1463 1463 1463 1463 1464 1464 1464 1465 1466
1411 1413 1414 1416 1418 1419 1420 1421 1423 1425 1427 1428 1429 1430 1431 1432 1433 1433 1434 1434 1434 1434 1435 1436 1437 1438 1439 1440 1442 1443 1444 1444 1443 1442 1442 1443 1444 1444 1445 1445 1446 1447 1449 1449 1450 1451 1452 1453 1454 1455 1456 1457 1457 1457 1458 1458 1459 1459 1460 1460 1461 1461 1461 1462 1462 1463 1463 1464 1464
1410 1412 1413 1415 1416 1417 1418 1420 1422 1423 1424 1426 1427 1428 1429 1430 1431 1431 1432 1432 1432 1433 1434 1435 1436 1437 1437 1438 1439 1440 1441 1441 1441 1441 1441 1442 1442 1443 1443 1444 1444 1445 1446 1447 1448 1449 1450 1451 1452 1453 1454 1455 1455 1456 1456 1456 1457 1458 1458 1458 1459 1459 1460 1460 1461 1461 1462 1462 1463
1409 1411 1412 1413 1414 1416 1417 1419 1420 1421 1422 1424 1425 1426 1428 1429 1429 1430 1430 1430 1431 1431 1433 1434 1435 1435 1436 1437 1438 1439 1439 1439 1439 1439 1439 1440 1441 1441 1442 1442 1443 1444 1444 1445 1446 1448 1449 1449 1451 1452 1453 1453 1454 1454 1454 1455 1455 1456 1456 1456 1457 1458 1458 1459 1459 1459 1459 1460 1461
1408 1409 1410 1412 1413 1414 1416 1417 1418 1420 1421 1422 1424 1425 1426 1428 1429 1429 1429 1429 1430 1431 1432 1432 1433 1433 1434 1436 1437 1437 1438 1438 1438 1438 1438 1439 1440 1440 1441 1441 1441 1442 1443 1444 1445 1446 1447 1448 1449 1450 1451 1451 1452 1453 1453 1454 1454 1454 1454 1454 1455 1456 1456 1456 1457 1457 1458 1458 1459
1406 1408 1409 1411 1412 1413 1414 1416 1417 1419 1420 1422 1422 1424 1425 1426 1427 1428 1428 1429 1430 1431 1432 1432 1432 1432 1433 1434 1435 1435 1435 1436 1436 1436 1437 1438 1438 1439 1439 1439 1440 1441 1442 1443 1444 1445 1446 1447 1448 1449 1449 1450 1451 1451 1451 1452 1452 1452 1453 1453 1453 1454 1454 1454 1454 1455 1455 1456 1457
1405 1407 1409 1410 1411 1413 1414 1415 1416 1418 1419 1420 1421 1422 1424 1424 1426 1427 1428 1429 1430 1431 1431 1431 1431 1431 1432 1433 1433 1434 1434 1434 1434 1434 1435 1436 1437 1438 1438 1439 1439 1440 1440 1441 1442 1444 1444 1445 1447 1448 1448 1449 1449 1449 1450 1450 1451 1451 1451 1451 1451 1452 1452 1452 1453 1453 1453 1454 1454
Wind_Speed
35 36 37 37 37 37 38 38 38 38 38 37 37 37 37 37 37 36 36 36 36 36 36 36 36 35 35 35 34 35 35 35 36 37 38 38 39 39 39 39 39 39 38 38 37 36 36 36 36 37 37 36 36 36 35 34 33 32 32 32 32 31 31 30 30 29 29 29 27
37 37 38 38 38 38 38 38 39 39 39 38 38 38 37 37 37 37 37 37 37 37 36 36 36 35 35 35 34 34 34 35 36 37 38 39 39 40 40 40 40 40 39 39 38 38 38 38 38 38 38 38 38 37 37 36 35 34 33 33 33 33 32 31 30 30 30 29 28
38 38 39 39 39 40 40 40 40 40 40 39 39 38 38 38 38 38 38 37 37 36 36 36 36 35 35 35 34 34 34 35 36 37 38 39 40 40 41 42 42 41 40 39 39 39 39 40 40 40 40 40 39 39 38 37 36 35 35 35 35 34 33 32 31 31 30 30 30
40 40 40 41 41 41 41 41 41 41 41 40 40 39 39 39 39 38 38 37 37 37 36 36 35 35 34 34 34 34 34 35 35 37 38 39 40 41 42 42 42 42 41 40 40 40 41 41 42 42 42 41 41 40 40 38 37 36 36 36 36 35 34 33 32 31 31 31 31
42 42 42 42 43 43 42 42 42 42 41 41 40 40 40 40 39 39 39 38 38 37 36 35 34 34 34 34 34 34 34 34 35 37 38 39 40 41 42 43 43 43 42 42 42 42 42 42 43 43 43 43 42 41 40 39 38 37 38 38 37 36 35 33 33 32 32 32 32
44 44 44 44 44 44 43 43 43 42 42 41 41 41 41 41 40 40 39 39 37 36 35 34 34 34 33 33 33 34 34 34 35 36 38 39 40 41 42 43 43 43 43 43 43 43 43 43 44 44 44 44 43 41 40 39 38 39 39 39 38 37 35 34 33 33 33 33 33
46 45 45 45 45 45 44 44 44 43 43 43 42 42 42 41 40 40 39 38 37 36 35 34 34 34 34 33 33 34 34 34 35 36 37 38 40 41 42 43 43 44 44 44 44 45 44 44 44 45 44 44 42 41 40 40 40 41 41 40 39 37 35 34 34 34 34 34 34
47 46 46 45 45 45 45 44 44 44 43 44 43 43 42 41 40 39 38 38 37 36 35 35 34 34 34 34 34 33 34 34 35 36 37 38 39 40 41 42 43 44 45 45 45 45 45 45 44 44 43 42 41 41 41 41 42 42 43 41 39 37 35 34 35 35 35 35 35
47 47 46 46 45 45 45 45 44 44 44 44 44 43 42 41 40 40 39 39 38 37 36 35 34 34 34 34 34 34 34 34 35 36 36 38 39 40 41 43 44 45 45 45 45 44 44 44 44 43 42 41 40 40 41 43 44 44 44 42 39 37 36 36 36 36 36 36 35
47 47 46 45 45 45 45 45 44 44 44 44 43 43 42 41 41 40 40 39 38 38 38 37 36 35 35 35 35 35 35 35 36 36 37 38 39 40 42 44 45 45 44 44 43 43 44 44 43 43 42 41 40 40 42 44 45 45 44 42 39 38 37 37 37 37 37 36 35
48 47 46 45 45 45 45 45 45 45 45 45 44 43 43 42 42 41 40 40 40 40 40 39 38 38 37 37 37 37 37 37 37 38 38 39 41 42 43 44 44 43 42 41 41 42 43 43 43 42 41 40 40 40 42 43 43 43 42 42 41 40 39 38 38 38 37 36 35
47 46 45 44 44 44 45 45 46 46 46 46 46 45 44 44 43 42 42 42 42 42 41 41 41 41 40 40 39 39 39 39 39 40 40 41 42 43 43 42 41 40 39 39 40 41 41 42 42 42 41 41 41 41 40 40 40 41 42 42 42 41 40 39 39 38 37 37 35
46 45 44 43 42 43 43 45 46 47 47 47 47 47 46 45 44 44 44 44 44 43 43 43 43 44 43 43 43 42 42 42 42 42 42 43 43 43 42 40 38 38 38 39 40 41 41 41 41 41 42 42 42 41 40 38 39 40 42 43 43 43 41 40 38 38 37 36 36
45 44 43 42 41 41 42 44 45 47 48 48 49 49 48 47 46 46 46 46 45 45 45 45 46 46 46 46 46 46 46 45 45 45 44 43 42 41 40 39 37 37 38 40 41 41 42 42 41 42 42 43 43 42 40 39 38 39 41 43 44 43 41 39 38 37 36 36 36
44 43 42 41 40 40 41 43 45 46 48 49 49 50 50 49 49 48 48 48 47 47 47 48 48 48 48 48 48 48 48 48 47 45 43 42 41 40 40 39 38 39 39 40 41 42 42 42 42 42 42 43 43 42 41 40 38 38 40 42 43 42 40 38 37 36 36 36 36
43 42 42 41 41 41 42 44 45 47 48 49 50 50 51 50 50 50 49 49 49 49 49 50 50 50 50 50 50 50 49 48 45 43 41 40 40 40 40 41 41 41 41 41 41 42 42 42 42 42 42 42 42 42 41 40 39 39 39 40 41 41 40 38 37 36 37 37 38
44 43 43 43 44 44 45 45 46 47 48 49 50 51 51 51 51 50 50 50 50 50 50 50 50 51 51 52 51 49 47 45 44 43 42 41 41 41 42 43 43 42 42 41 41 41 41 41 41 42 42 42 42 41 41 40 40 39 39 40 40 40 40 39 39 39 40 40 40
46 46 46 46 46 46 46 46 46 47 48 49 50 51 52 52 51 51 51 50 50 50 51 51 51 51 51 51 49 47 45 44 44 44 44 44 43 43 44 44 43 42 41 40 40 40 41 41 42 42 42 42 41 41 41 40 40 40 39 39 39 40 41 42 42 43 43 43 43
48 49 49 49 49 48 47 46 46 47 49 50 49 49 50 51 51 51 51 51 50 51 51 51 50 49 48 47 46 45 44 45 46 46 46 45 45 44 44 44 43 41 40 39 39 40 41 41 42 42 42 41 41 41 41 40 40 40 39 39 39 40 41 43 45 46 46 45 43
50 50 51 51 52 51 50 48 48 48 49 48 46 45 45 47 48 49 50 50 50 50 51 51 49 46 45 44 44 45 46 46 46 46 46 46 45 44 44 43 41 40 39 39 40 40 41 41 41 41 41 41 41 41 41 41 40 39 39 38 37 38 40 43 45 46 46 45 43
51 51 51 52 53 53 52 50 49 48 47 44 41 40 41 43 45 47 49 50 50 50 50 50 49 46 45 45 45 46 47 47 46 46 45 44 43 42 41 40 39 39 39 40 40 41 41 41 41 41 41 41 42 42 42 42 41 39 38 37 36 37 39 42 44 46 46 45 43
52 52 52 52 52 53 52 51 50 49 46 43 42 41 41 41 44 47 48 48 48 48 49 49 49 48 47 47 47 47 47 47 46 45 44 42 41 40 39 37 37 37 38 39 40 41 41 41 40 40 40 41 42 42 43 43 42 41 39 38 38 38 39 40 43 45 46 45 42
53 53 53 52 52 52 51 51 51 50 49 47 46 42 39 39 42 45 47 47 46 46 47 48 49 49 49 49 48 47 47 46 44 43 42 42 42 41 39 37 36 36 37 38 39 40 41 41 40 40 40 40 42 43 45 45 44 43 41 40 39 39 39 41 42 44 44 44 42
54 53 52 52 51 51 50 50 51 51 51 50 46 42 37 36 38 42 46 46 45 45 45 46 47 48 49 49 48 47 46 44 43 43 42 43 43 42 40 37 36 36 36 38 39 40 41 41 40 40 40 41 42 44 45 46 46 45 43 42 40 40 40 41 42 43 44 43 41
55 54 53 52 51 50 50 50 52 53 53 51 45 40 37 37 39 42 45 46 46 45 45 46 46 47 47 47 47 46 45 44 43 43 43 43 41 39 37 35 34 34 36 37 39 40 40 40 40 41 41 42 43 44 45 46 46 45 44 42 41 41 41 42 43 43 43 43 41
56 55 54 53 52 51 51 52 53 54 54 51 45 40 37 39 41 43 45 46 46 46 46 45 45 46 46 46 46 45 44 43 43 43 42 40 38 36 33 32 31 33 35 37 38 39 39 40 41 41 42 43 44 44 45 45 45 45 44 43 42 41 41 42 43 43 43 42 42
56 55 55 54 53 52 52 53 54 55 54 51 47 42 39 39 40 42 43 45 46 46 46 45 45 45 45 45 45 44 44 43 43 41 37 32 29 28 30 33 36 36 36 36 36 37 38 40 41 42 43 43 44 44 44 44 43 43 43 43 42 42 42 42 42 42 43 42 42
56 56 56 55 55 54 54 54 55 54 54 52 49 45 41 39 39 40 42 44 45 45 45 45 44 44 44 44 44 45 45 44 41 35 27 22 25 30 34 35 35 36 37 38 38 39 40 40 41 42 42 43 43 43 42 42 42 42 42 42 42 42 41 41 41 41 42 42 42
55 56 56 56 56 56 56 56 55 55 54 53 50 47 43 41 40 40 41 42 43 44 44 45 44 44 44 44 45 46 45 42 35 26 20 21 25 30 33 35 36 37 38 39 39 40 40 41 41 41 41 41 41 41 41 41 41 42 42 42 42 41 41 40 40 41 41 42 42
54 56 56 57 57 58 58 58 57 56 55 53 51 49 46 43 41 40 40 41 43 44 45 45 45 44 45 46 47 47 44 38 29 23 21 24 29 32 34 36 37 38 39 39 40 40 41 41 40 40 40 39 40 40 41 41 41 41 41 41 41 41 40 40 40 40 41 41 42
54 55 56 57 57 58 59 59 59 57 55 53 52 51 49 46 42 40 40 41 42 43 44 45 45 45 46 48 48 47 42 35 26 23 24 28 31 33 35 36 38 39 40 40 40 40 40 39 39 38 38 38 39 40 41 41 41 41 40 40 40 40 40 40 40 40 40 40 41
52 54 55 56 57 58 59 59 59 57 55 53 53 52 51 47 44 41 40 40 41 42 44 44 45 46 47 48 48 46 40 32 27 25 27 30 32 34 35 36 37 39 40 40 39 39 39 38 37 37 36 37 38 39 40 40 40 40 40 40 40 40 39 39 39 39 39 39 40
50 52 53 54 56 57 58 58 58 57 56 55 54 53 51 48 44 41 40 40 41 42 43 44 45 46 47 47 46 43 37 30 27 28 30 32 34 34 35 35 37 37 37 37 37 37 37 37 36 36 36 36 37 38 39 39 39 39 39 39 39 38 38 37 37 38 38 39 39
47 49 51 52 53 54 55 56 56 56 56 55 54 53 52 49 44 41 39 40 41 42 43 44 44 44 45 45 43 39 35 31 30 32 35 36 35 35 35 36 36 36 35 35 35 35 36 36 36 35 35 35 36 37 38 39 39 39 39 38 37 36 36 35 36 36 37 38 38
45 46 47 48 49 50 52 54 54 55 54 54 53 53 51 48 44 41 40 40 41 41 41 41 41 42 42 42 39 37 35 34 36 38 39 38 36 35 35 36 36 35 34 34 34 34 34 34 35 35 34 34 35 36 37 38 38 38 38 37 36 35 35 34 35 35 36 37 38
42 43 44 45 46 48 50 51 52 53 53 52 52 51 49 46 43 41 40 40 40 40 40 40 40 40 40 39 36 34 34 35 38 40 40 38 36 35 35 35 35 34 34 34 33 33 32 33 33 33 33 33 34 35 37 37 38 37 36 35 35 34 34 34 35 35 36 37 37
39 41 42 43 45 46 47 49 50 51 51 51 50 49 46 43 41 39 39 39 39 39 38 38 38 40 40 38 35 33 33 35 38 40 40 38 37 36 35 35 35 34 34 33 32 31 31 31 32 32 32 33 34 35 36 37 36 36 35 35 34 34 34 34 35 35 36 36 36
37 39 40 42 43 44 46 47 48 49 50 49 48 46 43 40 39 38 38 38 38 37 37 37 38 39 39 37 35 33 33 35 38 39 39 37 36 36 35 35 34 33 33 32 31 30 30 30 31 31 32 33 34 35 35 35 35 35 34 34 34 34 35 35 35 36 36 36 35
36 37 39 40 41 43 45 46 46 47 47 47 45 43 40 38 37 36 36 36 36 36 36 37 38 38 38 36 35 34 34 36 38 38 37 36 35 35 34 34 32 31 30 30 29 29 29 30 30 30 31 32 33 33 34 34 34 34 34 35 35 35 36 36 36 36 36 35 35
36 36 37 38 39 41 43 43 44 44 45 44 44 42 41 39 37 36 36 35 34 34 35 36 37 38 37 36 35 35 36 36 36 36 35 34 34 33 33 31 30 29 29 28 28 28 29 29 29 30 30 31 32 32 33 33 33 34 34 35 36 36 37 37 37 37 37 36 35
35 35 35 35 37 38 40 41 43 43 44 44 45 45 44 42 40 38 36 35 34 35 36 37 38 37 37 36 36 36 36 36 36 35 33 33 32 31 29 29 28 28 28 28 28 28 28 29 29 29 30 30 31 32 32 32 33 34 35 36 36 37 37 38 38 38 37 37 36
Wind_Direction
230 230 230 230 230 230 230 231 232 233 234 235 235 236 236 236 237 237 238 239 240 240 241 242 242 243 243 243 242 241 240 239 237 236 234 233 231 231 230 230 231 231 232 233 234 235 236 237 237 238 239 239 241 242 244 246 248 249 250 251 250 248 244 241 238 236 234 233 233
231 232 233 233 233 233 233 233 234 235 236 237 238 238 239 240 240 241 242 242 243 244 244 244 245 245 245 244 244 243 242 240 238 237 235 234 233 232 231 231 232 232 233 234 235 236 237 238 239 239 239 240 240 241 243 245 246 248 249 250 250 248 246 243 241 239 236 234 233
232 233 234 235 235 235 235 235 236 236 237 238 239 240 241 242 243 244 245 245 246 246 246 246 246 245 245 245 244 244 242 241 239 238 237 235 234 233 233 233 233 234 234 235 236 238 239 240 240 241 241 241 241 241 242 244 245 247 249 250 250 248 247 245 243 241 238 235 234
233 233 234 235 236 237 237 238 238 238 239 239 240 240 241 242 244 245 246 247 248 248 247 247 246 245 245 244 244 243 242 241 240 239 238 237 236 235 235 235 235 235 236 237 238 239 240 241 242 242 242 242 242 241 242 243 245 247 249 250 249 248 247 246 245 243 239 237 235
233 234 235 236 238 239 240 240 240 240 241 241 241 241 242 243 244 245 246 247 247 247 247 246 246 245 244 244 243 243 242 241 240 240 239 239 238 237 237 237 237 237 238 238 239 240 241 242 242 243 243 243 243 242 243 244 246 248 249 250 249 247 246 245 245 243 241 239 237
233 235 236 238 239 240 241 241 241 241 242 242 242 242 242 243 244 245 245 246 246 246 245 245 245 245 245 244 244 243 242 241 241 240 240 240 240 240 239 239 239 239 239 239 240 241 242 242 242 243 243 243 243 243 244 245 247 248 250 250 249 247 246 244 244 244 242 239 237
234 235 237 238 239 240 241 241 241 241 241 242 242 242 243 244 245 245 246 245 245 245 245 245 245 245 245 245 245 244 243 242 241 241 241 241 241 241 241 241 241 241 241 241 241 241 242 242 242 242 243 243 243 244 245 246 248 249 249 250 249 247 246 245 245 244 242 239 238
234 236 237 238 239 240 240 240 240 240 241 241 242 243 244 244 245 246 246 246 246 245 245 245 245 245 245 246 246 245 245 244 243 242 242 242 242 243 243 243 243 242 242 242 242 242 242 243 242 242 242 243 244 246 247 248 249 249 250 250 249 248 247 247 246 244 242 240 238
234 236 237 238 238 239 239 240 240 240 240 241 242 243 244 245 245 246 247 247 246 246 246 246 246 246 246 247 247 247 246 246 245 245 244 243 243 244 244 244 244 243 243 242 242 243 243 243 243 242 243 244 245 247 249 250 250 250 250 250 250 250 249 248 246 244 242 240 239
233 234 235 235 236 237 238 239 240 240 241 242 243 244 244 245 245 246 246 247 247 247 248 248 248 248 248 248 248 248 248 248 247 247 246 246 245 245 245 245 244 243 242 242 242 243 244 244 244 244 244 244 246 248 251 252 252 251 251 252 252 251 250 248 246 243 242 240 239
232 233 233 233 235 236 237 238 239 240 241 242 243 244 244 245 245 245 246 246 248 249 249 249 250 251 251 251 250 250 250 250 249 250 250 249 249 248 246 244 243 243 242 242 243 244 245 245 244 244 244 244 245 247 250 252 253 253 253 253 253 252 250 248 245 243 241 241 240
232 232 232 233 233 234 236 237 239 240 241 242 243 244 244 245 245 245 246 247 248 249 249 250 251 252 253 253 253 253 253 253 252 252 253 252 251 248 245 242 242 242 243 243 243 244 244 245 244 243 243 244 245 247 249 252 254 254 254 254 254 252 250 247 245 243 242 242 241
231 231 231 231 232 233 234 237 238 240 241 242 243 244 245 245 245 245 246 247 248 248 249 250 251 253 254 255 255 255 256 256 256 255 254 253 250 247 244 241 240 241 244 245 245 245 246 245 244 243 243 244 246 247 249 252 254 255 255 255 254 252 250 247 245 243 243 243 243
231 230 230 230 230 231 233 236 238 240 241 243 244 245 245 245 245 245 246 246 247 248 249 250 251 252 254 255 256 257 258 258 257 256 253 250 247 245 243 242 240 241 244 246 247 247 247 246 245 244 244 245 247 248 250 252 255 256 256 256 255 253 251 248 246 244 244 245 246
230 229 229 229 229 230 232 235 238 240 242 243 245 246 246 246 246 246 246 246 247 248 249 250 251 252 254 255 256 257 258 257 256 253 250 247 245 244 244 244 243 244 245 247 248 248 248 247 246 245 245 246 248 250 251 253 256 258 259 257 256 254 253 250 248 247 246 247 248
229 229 229 229 229 230 232 235 238 240 242 244 245 247 247 247 247 247 247 247 248 248 249 250 251 252 253 254 255 255 254 254 252 250 247 245 245 245 245 246 247 247 248 247 248 248 248 247 246 246 247 248 249 250 252 253 256 259 260 258 256 254 252 251 250 248 248 248 249
227 229 230 230 230 231 232 234 237 239 242 244 246 247 247 247 247 248 248 249 249 249 250 251 251 252 253 253 252 250 249 249 249 248 248 248 247 247 247 249 250 250 249 247 247 247 248 248 247 247 248 249 250 251 253 254 256 258 260 259 257 254 251 250 250 250 250 251 251
224 226 228 230 231 231 232 235 237 240 242 244 245 246 247 247 247 248 249 250 251 251 251 252 252 251 250 249 248 247 246 247 248 249 250 250 250 249 250 251 251 250 248 247 247 248 248 249 249 248 249 250 251 252 254 255 256 258 260 261 258 255 252 250 251 251 252 253 254
224 225 226 227 229 230 232 235 238 241 242 242 241 242 244 245 247 248 249 251 252 253 254 253 251 249 247 245 246 246 247 248 250 251 251 251 251 251 251 251 249 248 246 246 247 248 249 250 250 249 250 250 252 253 255 256 258 260 262 263 262 258 255 253 252 253 254 255 256
224 224 225 225 227 228 229 232 235 237 239 238 237 238 240 243 246 248 249 251 252 254 254 254 250 246 244 244 245 247 248 250 250 251 251 251 250 250 249 249 247 247 247 246 246 247 248 250 250 250 250 251 252 254 256 257 259 261 263 265 265 263 260 256 255 254 255 256 257
224 224 225 225 226 227 228 230 232 233 233 232 232 234 238 243 247 249 250 250 251 252 253 253 251 247 245 245 246 248 249 250 250 250 250 249 249 249 248 247 247 248 247 246 246 246 248 249 250 251 251 252 253 255 256 257 259 261 264 267 269 269 266 261 257 255 255 256 258
225 225 226 226 227 227 228 229 230 230 229 228 230 234 240 247 251 252 251 250 249 250 251 251 251 250 249 248 248 248 248 248 248 247 247 247 247 247 246 245 246 248 248 247 246 247 248 250 252 253 254 254 255 255 256 256 258 261 265 269 270 270 267 263 258 255 255 256 258
226 226 226 227 227 227 228 229 229 228 227 227 230 236 243 249 253 252 250 248 247 247 248 249 249 250 250 250 249 248 247 246 245 244 244 244 245 245 244 244 244 246 248 248 248 249 250 252 254 257 259 258 257 256 255 255 256 259 263 266 267 267 265 262 258 256 255 257 258
228 227 226 226 226 227 227 228 228 227 226 226 231 237 244 247 249 248 247 245 245 245 245 246 247 248 249 249 248 246 244 243 241 241 241 242 244 246 247 246 246 247 249 250 250 251 252 255 258 261 263 262 259 256 254 254 255 257 259 262 264 264 262 259 257 256 256 257 258
228 227 226 225 225 226 226 227 227 227 226 225 228 236 244 246 245 244 244 243 243 243 244 245 246 246 246 246 245 244 242 240 239 238 239 242 246 249 251 252 254 257 257 255 254 254 256 259 262 264 264 262 258 255 253 253 254 255 257 260 261 261 260 258 257 257 257 257 257
228 227 226 226 225 225 226 226 227 228 227 225 225 230 238 242 242 241 241 242 242 242 243 243 244 244 243 243 242 241 240 238 236 237 239 245 252 257 261 264 266 266 265 262 259 258 259 261 262 262 261 259 256 254 253 253 254 255 256 258 260 260 259 258 258 257 257 257 256
228 227 227 227 226 225 225 227 228 229 228 225 224 227 232 237 238 238 238 239 240 241 241 242 241 241 241 240 240 238 237 235 233 236 243 252 262 268 269 268 265 262 258 256 255 256 258 260 260 259 258 256 255 254 253 253 254 255 256 257 258 259 259 259 259 258 258 257 256
228 228 228 228 227 226 226 227 228 228 228 226 225 226 230 235 236 236 236 236 237 238 238 239 239 239 239 238 237 236 235 234 235 239 249 265 271 268 263 258 253 250 248 248 250 254 257 260 260 258 257 256 255 255 255 255 255 255 255 256 258 259 260 260 260 259 259 258 257
228 229 228 228 228 227 227 228 228 229 228 228 226 227 230 235 236 236 234 234 235 235 236 236 237 237 236 235 236 236 235 234 236 241 254 268 264 256 251 248 246 245 246 247 251 255 258 259 259 258 256 256 255 256 256 255 255 255 255 257 258 260 261 261 261 260 259 258 257
229 229 229 229 228 228 228 229 229 230 229 228 227 227 230 234 236 235 233 233 233 234 235 236 235 235 235 236 237 236 235 235 236 243 253 256 253 249 247 245 245 245 247 249 252 255 258 259 258 258 256 255 254 255 255 256 255 256 256 257 259 261 262 262 261 260 260 259 257
230 230 230 230 229 229 230 230 231 231 230 228 227 227 230 233 234 234 233 232 233 234 235 235 235 235 237 238 239 238 235 234 235 241 249 252 250 248 247 247 247 247 249 251 253 255 257 258 258 258 257 255 253 253 254 256 257 257 258 259 260 262 262 263 262 262 261 259 258
230 230 230 230 230 230 231 231 231 231 230 228 227 228 229 232 233 234 233 232 233 233 234 234 235 236 237 239 239 237 235 234 237 246 253 254 252 250 249 249 250 251 252 254 255 256 256 257 258 258 256 254 251 251 252 254 256 257 259 260 262 263 264 264 264 263 262 260 258
229 229 230 230 230 230 231 231 231 230 230 229 229 229 230 232 233 233 232 231 231 232 233 234 234 235 237 237 236 234 233 236 243 251 257 258 256 253 251 251 252 253 256 258 259 258 256 256 257 257 256 253 251 250 251 253 254 256 258 260 263 265 266 266 265 263 261 259 258
227 228 228 229 228 228 229 229 229 229 229 229 229 230 231 232 232 231 229 229 230 232 233 234 235 236 237 238 236 236 238 244 251 256 259 261 260 256 253 251 252 255 259 262 262 259 256 255 255 255 254 253 250 249 249 251 253 255 257 260 263 266 267 266 264 262 260 258 257
225 225 225 225 225 225 226 226 227 227 227 227 228 229 231 232 232 230 229 228 229 230 232 233 235 236 238 239 242 245 248 252 255 258 260 262 261 257 253 253 254 257 261 263 262 258 255 255 255 255 254 252 250 248 248 249 251 255 258 262 264 266 266 265 263 260 258 257 256
224 223 223 222 221 222 223 225 225 225 225 225 226 228 229 231 231 230 228 228 228 229 231 233 235 235 237 240 246 250 254 258 256 257 259 262 262 259 256 255 257 260 262 263 261 258 255 255 255 254 253 251 249 247 248 249 252 256 259 262 264 264 264 262 259 257 256 255 255
223 223 222 221 221 221 223 224 224 224 224 224 225 226 227 228 228 227 226 225 226 228 231 235 236 237 237 240 245 250 253 256 257 258 260 262 263 262 260 259 260 261 262 262 260 257 257 257 256 254 251 249 247 247 248 251 254 256 259 260 261 260 259 257 256 255 254 254 254
222 223 222 222 221 222 222 222 223 223 223 223 223 224 225 226 225 224 224 223 223 227 232 237 239 239 240 241 244 246 251 255 258 260 261 262 263 263 262 262 262 261 261 261 259 258 258 258 256 254 251 248 247 248 250 252 254 256 257 257 256 254 253 252 252 252 252 253 253
222 223 222 222 221 221 221 220 220 220 221 221 222 223 223 224 223 223 222 221 223 227 233 236 239 241 241 241 243 245 250 256 259 260 261 262 263 263 263 263 261 260 259 259 259 260 260 259 257 254 252 250 249 250 251 253 254 254 253 252 250 249 249 250 251 251 252 253 253
224 224 223 221 220 220 219 218 218 218 219 221 222 223 224 225 224 224 223 223 225 229 234 238 241 242 241 241 243 247 253 258 261 262 262 262 264 264 263 261 260 259 259 260 260 261 260 259 257 255 253 251 250 251 252 252 252 250 248 246 245 245 247 249 250 251 251 253 254
226 225 224 223 222 221 221 220 220 220 221 223 224 226 227 228 228 228 227 229 232 236 240 243 244 244 243 242 245 251 256 260 262 263 263 263 263 261 259 258 258 259 260 260 260 260 259 258 257 255 253 251 250 250 250 249 248 245 243 243 243 244 246 248 249 250 251 253 254